ONEWEB-0124, 47270

Orbit data source: Space-Track

ONEWEB-0124, 47270 is a payload satellite owned by One Web (UK) in LEO that was launched on Fri, 18 Dec 2020 UTC via a SOYUZ-2-1B launch vehicle from the Vostochny Cosmodrome (VOSTO). Payload-class satellites include a variety of spacecraft equipped with specific instruments for various scientific and technological missions. These include communications satellites like Starlink; space stations such as the ISS; scientific satellites like the Hubble; Earth observation satellites from companies like Planet Labs, Umbra, and HawkEye 360; GPS; miniature CubeSats for education and research; and military/defense satellites.

Loading next visibility...
Identifier
47270, 2020-100N
Orbit
LEO
Country
Flag of UKUK
Related business
Manufacturer
One Web
Mission
Operational Commercial Communications
Bus & Motor
ARROW, Unknown motor
Mass
148 kg wet, ~140 kg dry
Launch date (UTC)
2020-12-18 (5 years ago)
Launch vehicle
SOYUZ-2-1B
Launch site
Vostochny Cosmodrome (VOSTO)
Object type
Payload
Rocket body
Debris
Shape & HBR
Trap Box + 2 Pan, 6.7 m
Radar Cross Section
3.464 m², Large (>1 m²)

Expand to show TLE details & history
Last TLE update: 7 hours ago

TLE from 7 hours ago
0 ONEWEB-0124
1 47270U 20100N   26095.23766504 -.00000531  00000-0 -15109-2 0  9997
2 47270  87.9005   5.1644 0001755  83.0248 277.1080 13.12443194255003
Epoch: 2026-04-05T05:42Z
TLE epoch observation values (Epoch: 2026-04-05T05:42:14.259Z)
Latitude
-0.00003°
Longitude
86.05902°
Altitude
1,216.449 km
Speed
7.246 km/s
True Right ascension
00h 20m 39s
True Declination
0° 00' 00"
Sunlit
Object was in daylight at epoch
Visualization orbit readout
Latitude
Unknown
Longitude
Unknown
Altitude
Unknown
Speed
Unknown
Apparent Right ascension
Unknown
Apparent Declination
Unknown
Sunlit
N/A
Visualization observer readout
Local Sidereal Time
19:00:30
Azimuth
Unknown
Elevation
Unknown
Doppler factor
Unknown
Orbital elements
Apogee altitude
1,212.171 km
Perigee altitude
1,209.507 km
Semi-major axis
7,588.976 km
Eccentricity
0.00018
Inclination
87.9005°
RAAN
5.1644°
Arg. of periapsis
83.0248°
True anomaly
277.08804°
Mean anomaly
277.108°
Eccentric anomaly
277.09802°
Mean motion
3.28298 °/min
Orbital period
109.66 mins
BSTAR
-0.0015109
Loading maneuver chart data...
Computing Atmospheric mass density...
Loading historical data...
Loading historical data...
Loading historical data...
Loading historical data...
Loading historical data...
Loading historical data...
Loading historical data...

Documentation

Showing up to 5 results
|